WAT4855 MPTO-SKRG

Flight info

Callsign WAT4855
Flight time 0h 51m
Altitude 35000
Route KUBEK LCE B689 OPMEL OPME4A
Aircraft MD11/H-SDE1E2E3FGHIJ2J3J4J5M1RWXY/LB1D1

Departure

Time 2026-05-04 15:49
Airport Tocumen International Airport (MPTO)

Arrival

Time 2026-05-04 16:41
Airport Jose Maria Córdova International Airport (SKRG)
Time Latitude Longitude Altitude Speed Heading
2026-05-04 15:46 9.07341 -79.38519 50 ft 16 kts 210°
2026-05-04 15:47 9.07268 -79.38561 50 ft 1 kts 210°
2026-05-04 15:47 9.07263 -79.38565 51 ft 3 kts 216°
2026-05-04 15:47 9.07252 -79.38599 50 ft 6 kts 271°
2026-05-04 15:47 9.07265 -79.38643 49 ft 9 kts 288°
2026-05-04 15:48 9.07285 -79.38696 50 ft 5 kts 305°
2026-05-04 15:48 9.07314 -79.38699 53 ft 6 kts
2026-05-04 15:48 9.07700 -79.38479 52 ft 65 kts 30°
2026-05-04 15:49 9.08307 -79.38113 48 ft 141 kts 29°
2026-05-04 15:49 9.09290 -79.37501 411 ft 173 kts 34°
2026-05-04 15:49 9.10107 -79.36651 1350 ft 168 kts 63°
2026-05-04 15:49 9.10315 -79.35400 1804 ft 205 kts 94°
2026-05-04 15:50 9.09885 -79.33903 1995 ft 238 kts 108°
2026-05-04 15:50 9.09296 -79.32254 2406 ft 255 kts 106°
2026-05-04 15:50 9.08753 -79.30533 3120 ft 257 kts 105°
2026-05-04 15:50 9.08277 -79.28789 4010 ft 255 kts 101°
2026-05-04 15:51 9.07853 -79.27039 5115 ft 257 kts 100°
2026-05-04 15:51 9.07462 -79.25265 6185 ft 260 kts 99°
2026-05-04 15:51 9.07093 -79.23459 7176 ft 264 kts 99°
2026-05-04 15:51 9.06738 -79.21633 8225 ft 266 kts 99°
2026-05-04 15:52 9.06391 -79.19784 9265 ft 269 kts 99°
2026-05-04 15:52 9.06051 -79.17914 10233 ft 272 kts 98°
2026-05-04 15:52 9.05842 -79.15993 10968 ft 285 kts 94°
2026-05-04 15:52 9.05743 -79.13870 11097 ft 319 kts 91°
2026-05-04 15:53 9.05682 -79.11513 11244 ft 350 kts 91°
2026-05-04 15:53 9.05631 -79.09010 11993 ft 359 kts 91°
2026-05-04 15:53 9.05581 -79.06461 12870 ft 365 kts 91°
2026-05-04 15:53 9.05530 -79.03875 13740 ft 371 kts 91°
2026-05-04 15:54 9.05476 -79.01248 14469 ft 376 kts 91°
2026-05-04 15:54 9.05421 -78.98585 15199 ft 381 kts 91°
2026-05-04 15:54 9.05364 -78.95887 15945 ft 386 kts 91°
2026-05-04 15:54 9.05307 -78.93190 16653 ft 391 kts 91°
2026-05-04 15:55 9.05247 -78.90429 17343 ft 395 kts 91°
2026-05-04 15:55 9.05187 -78.87630 18024 ft 400 kts 91°
2026-05-04 15:55 9.05054 -78.84804 18587 ft 403 kts 99°
2026-05-04 15:55 9.04281 -78.82091 19194 ft 408 kts 113°
2026-05-04 15:56 9.02928 -78.79546 19680 ft 414 kts 121°
2026-05-04 15:56 9.01344 -78.77099 20251 ft 418 kts 123°
2026-05-04 15:56 8.99692 -78.74657 20738 ft 422 kts 123°
2026-05-04 15:56 8.98035 -78.72183 21261 ft 428 kts 123°
2026-05-04 15:57 8.96387 -78.69665 21798 ft 432 kts 123°
2026-05-04 15:57 8.94740 -78.67099 22325 ft 437 kts 122°
2026-05-04 15:57 8.93094 -78.64498 22856 ft 442 kts 122°
2026-05-04 15:57 8.91436 -78.61860 23425 ft 447 kts 122°
2026-05-04 15:58 8.89766 -78.59195 23980 ft 449 kts 122°
2026-05-04 15:58 8.88090 -78.56517 24506 ft 453 kts 122°
2026-05-04 15:58 8.86401 -78.53818 25050 ft 456 kts 122°
2026-05-04 15:58 8.84699 -78.51099 25601 ft 459 kts 122°
2026-05-04 15:59 8.82981 -78.48357 26132 ft 463 kts 122°
2026-05-04 15:59 8.81252 -78.45600 26663 ft 467 kts 122°
2026-05-04 15:59 8.79532 -78.42856 27187 ft 470 kts 122°
2026-05-04 15:59 8.77773 -78.40053 27721 ft 474 kts 122°
2026-05-04 16:00 8.76003 -78.37231 28226 ft 477 kts 121°
2026-05-04 16:00 8.74216 -78.34385 28748 ft 481 kts 121°
2026-05-04 16:00 8.72417 -78.31518 29235 ft 485 kts 122°
2026-05-04 16:00 8.70605 -78.28632 29738 ft 488 kts 121°
2026-05-04 16:01 8.68785 -78.25733 30236 ft 489 kts 122°
2026-05-04 16:01 8.66961 -78.22830 30804 ft 488 kts 122°
2026-05-04 16:01 8.65149 -78.19947 31392 ft 486 kts 122°
2026-05-04 16:01 8.63342 -78.17072 31975 ft 483 kts 122°
2026-05-04 16:02 8.61546 -78.14214 32555 ft 480 kts 122°
2026-05-04 16:02 8.59755 -78.11368 33060 ft 480 kts 122°
2026-05-04 16:02 8.56183 -78.05698 33949 ft 478 kts 122°
2026-05-04 16:03 8.54402 -78.02871 34285 ft 475 kts 122°
2026-05-04 16:03 8.52632 -78.00059 34634 ft 473 kts 123°
2026-05-04 16:03 8.50868 -77.97257 34861 ft 472 kts 123°
2026-05-04 16:04 8.47366 -77.91695 34938 ft 476 kts 123°
2026-05-04 16:04 8.42028 -77.83220 34941 ft 477 kts 123°
2026-05-04 16:05 8.38467 -77.77569 34947 ft 477 kts 123°
2026-05-04 16:06 8.33121 -77.69090 34943 ft 477 kts 123°
2026-05-04 16:07 8.25993 -77.57792 34950 ft 477 kts 123°
2026-05-04 16:08 8.18864 -77.46504 34961 ft 479 kts 123°
2026-05-04 16:09 8.09907 -77.32347 34954 ft 479 kts 123°
2026-05-04 16:10 8.02738 -77.21019 34952 ft 478 kts 122°
2026-05-04 16:11 7.97011 -77.08951 34943 ft 478 kts 111°
2026-05-04 16:12 7.89493 -76.90321 34930 ft 478 kts 112°
2026-05-04 16:13 7.84404 -76.77964 34966 ft 476 kts 113°
2026-05-04 16:14 7.81188 -76.72164 34966 ft 474 kts 129°
2026-05-04 16:14 7.76248 -76.67784 34967 ft 475 kts 146°
2026-05-04 16:16 7.62552 -76.58611 34949 ft 474 kts 144°
2026-05-04 16:17 7.49125 -76.48988 34965 ft 474 kts 144°
2026-05-04 16:18 7.38377 -76.41290 34969 ft 474 kts 144°
2026-05-04 16:19 7.24965 -76.31694 34996 ft 473 kts 144°
2026-05-04 16:20 7.11542 -76.22097 34997 ft 473 kts 144°
2026-05-04 16:22 6.98150 -76.12524 35030 ft 474 kts 144°
2026-05-04 16:22 6.90162 -76.06817 35035 ft 453 kts 144°
2026-05-04 16:23 6.82490 -76.01339 35038 ft 450 kts 144°
2026-05-04 16:25 6.68256 -75.89209 35041 ft 449 kts 129°
2026-05-04 16:26 6.54610 -75.72105 34989 ft 439 kts 129°
2026-05-04 16:27 6.50735 -75.67347 31394 ft 447 kts 129°
2026-05-04 16:28 6.44661 -75.59891 27175 ft 464 kts 129°
2026-05-04 16:28 6.37177 -75.54103 24291 ft 454 kts 161°
2026-05-04 16:29 6.24826 -75.53642 20665 ft 435 kts 180°
2026-05-04 16:30 6.15941 -75.53702 18136 ft 417 kts 177°
2026-05-04 16:31 6.10246 -75.53669 16893 ft 387 kts 178°
2026-05-04 16:31 6.03152 -75.53741 15741 ft 318 kts 178°
2026-05-04 16:32 5.96772 -75.53797 14238 ft 279 kts 178°
2026-05-04 16:33 5.93011 -75.53832 13435 ft 265 kts 177°
2026-05-04 16:33 5.89512 -75.53236 12761 ft 246 kts 147°
2026-05-04 16:34 5.87681 -75.50779 12266 ft 215 kts 102°
2026-05-04 16:34 5.87558 -75.49302 11970 ft 209 kts 92°
2026-05-04 16:35 5.87569 -75.44740 11828 ft 220 kts 88°
2026-05-04 16:35 5.90208 -75.42033 10885 ft 231 kts
2026-05-04 16:36 5.91805 -75.42070 10544 ft 228 kts 359°
2026-05-04 16:36 5.94980 -75.42177 10119 ft 231 kts
2026-05-04 16:37 5.98157 -75.42199 9902 ft 222 kts
2026-05-04 16:37 5.99654 -75.42210 9856 ft 213 kts
2026-05-04 16:37 6.02562 -75.42228 9348 ft 202 kts
2026-05-04 16:38 6.05336 -75.42245 8877 ft 197 kts
2026-05-04 16:39 6.09345 -75.42268 8152 ft 188 kts
2026-05-04 16:39 6.11960 -75.42285 7637 ft 187 kts
2026-05-04 16:40 6.14522 -75.42299 7071 ft 184 kts
2026-05-04 16:40 6.16695 -75.42313 6984 ft 115 kts 359°
2026-05-04 16:41 6.17637 -75.42321 6996 ft 28 kts 359°
2026-05-04 16:41 6.18009 -75.42338 7015 ft 3 kts 302°
2026-05-04 16:42 6.18002 -75.42486 7017 ft 6 kts 230°
2026-05-04 16:43 6.17891 -75.42495 7011 ft 7 kts 181°
2026-05-04 16:43 6.17869 -75.42523 7011 ft 5 kts 248°
2026-05-04 16:43 6.17843 -75.42573 7012 ft 10 kts 237°
2026-05-04 16:44 6.17598 -75.42614 7001 ft 5 kts 238°
2026-05-04 16:45 6.17592 -75.42657 7002 ft 4 kts 269°
2026-05-04 16:46 6.17592 -75.42676 7003 ft 0 kts 270°